Temp
16 16 16 16 16 16 16 16 16 16 16 15 15 14 14 14 14 14 14 14 14 13 13 13 12 13 13 12 12 12 12 12 11 11 11 11 11 11 11 12 13 13 13 13 13 13 13 13 13 13 13 13
16 16 15 15 15 15 15 16 16 15 15 14 14 14 14 14 14 14 14 14 14 13 13 12 12 13 12 12 12 12 12 11 11 11 10 10 10 11 11 12 12 13 13 13 13 13 13 13 13 13 13 13
15 15 15 15 15 15 15 15 15 15 15 14 14 14 14 13 14 14 14 14 13 13 13 12 12 12 12 12 12 12 11 11 11 11 11 10 10 11 12 12 12 12 12 13 13 13 13 13 13 13 13 12
15 15 15 15 15 15 15 15 15 15 14 14 14 14 14 14 14 14 13 13 13 13 12 12 12 12 12 12 12 12 11 11 11 11 11 11 11 11 11 12 12 12 12 12 12 12 12 12 12 12 12 12
15 15 15 15 15 15 15 15 14 14 14 14 14 14 14 13 13 13 13 13 12 12 12 12 12 12 12 12 12 12 11 11 11 11 11 11 11 11 11 11 12 12 12 12 12 12 12 12 12 12 12 12
15 15 15 15 15 15 15 14 14 14 14 14 14 13 13 13 13 13 13 12 12 12 12 12 12 12 12 12 12 12 12 11 11 11 11 11 11 11 11 11 11 11 12 12 12 12 12 12 12 12 12 12
15 15 14 14 14 15 15 14 14 14 14 14 13 13 13 13 13 12 12 12 12 12 12 12 12 11 11 11 11 12 12 11 11 11 11 11 11 10 10 11 11 11 11 11 11 12 12 12 11 11 11 11
14 14 14 15 15 14 14 14 14 14 14 13 13 13 13 13 12 12 12 12 12 12 12 12 11 11 11 11 11 11 11 11 11 11 11 10 10 10 10 10 10 11 11 11 11 11 11 11 11 11 11 11
14 14 14 14 14 14 14 14 14 14 13 13 13 13 13 13 12 12 12 12 12 12 12 11 11 11 11 11 10 10 11 11 11 11 11 10 10 10 10 10 10 10 10 11 11 11 11 10 10 10 10 10
14 14 14 14 14 14 14 14 14 13 13 13 13 13 13 13 12 12 12 11 11 11 11 11 11 10 10 10 10 10 10 10 10 10 10 11 10 10 10 10 10 10 10 10 10 10 10 10 10 10 10 10
14 14 14 14 14 14 14 14 14 13 13 13 13 13 13 13 12 12 12 11 11 11 11 10 10 10 10 10 10 9 10 10 10 10 10 10 10 10 10 10 10 10 10 9 9 9 9 9 9 9 9 9
14 14 14 14 14 14 14 14 13 13 13 13 13 13 13 13 12 12 12 11 11 11 10 10 10 10 10 9 9 9 9 10 10 10 10 10 10 10 10 9 9 9 9 9 9 9 9 9 9 9 9 9
14 14 14 13 14 14 13 13 13 13 12 12 12 12 12 12 12 12 12 12 11 11 10 10 10 10 9 9 9 9 9 9 9 9 9 10 10 9 9 9 9 9 9 9 9 9 9 9 9 9 9 9
14 14 13 13 13 13 13 12 12 12 12 12 12 12 12 12 12 12 12 12 11 11 10 10 9 9 9 9 9 9 9 9 9 9 9 9 9 9 9 9 9 9 9 9 9 9 9 9 9 8 8 8
13 13 13 12 12 12 12 12 12 12 11 11 11 11 11 11 12 12 11 11 11 11 11 10 9 9 9 9 8 8 9 8 8 9 9 9 9 9 9 9 8 8 8 8 8 8 8 8 8 8 8 8
12 12 12 12 11 11 11 11 11 11 11 11 10 10 11 11 11 11 11 11 10 10 10 10 9 9 9 9 8 8 8 8 8 8 8 8 8 8 8 8 8 8 8 8 8 7 8 7 8 8 7 7
10 11 11 11 10 10 10 11 10 10 10 10 10 10 10 10 10 10 10 10 10 9 10 9 9 9 9 9 8 8 8 8 8 8 8 8 8 8 8 8 8 7 7 7 7 7 7 7 7 7 7 7
9 9 10 9 10 9 9 9 10 10 9 9 9 9 9 9 9 9 9 9 9 9 9 9 9 9 9 9 8 8 8 8 8 8 8 8 8 8 8 8 7 7 7 7 7 7 7 6 6 6 6 6
7 7 8 8 8 8 8 8 8 8 9 9 8 8 8 8 8 8 8 8 8 8 8 9 8 8 8 8 8 9 8 8 8 8 8 8 7 7 7 7 7 7 7 6 6 6 6 6 6 6 6 6
6 6 6 7 7 7 7 7 7 7 7 7 7 7 7 7 7 8 8 8 8 8 8 8 8 7 7 7 8 9 8 8 8 8 8 8 7 7 7 7 7 6 6 6 6 6 6 5 5 5 5 5
7 6 5 5 6 6 6 6 5 5 5 6 6 6 6 6 6 7 7 7 7 8 8 7 7 7 6 6 7 8 8 8 8 8 8 7 7 7 7 7 6 6 6 5 5 5 5 5 5 5 4 4
6 5 4 4 4 4 4 4 4 3 4 4 5 5 5 4 5 5 6 6 7 7 7 7 6 5 5 6 6 7 7 7 7 6 6 7 6 6 6 6 6 6 5 5 4 4 4 4 4 4 3 3
5 5 4 3 2 3 3 3 2 3 3 2 3 3 3 3 4 4 5 5 6 6 6 6 5 4 4 5 5 6 6 6 5 5 5 5 5 5 5 5 6 5 5 4 4 3 3 3 3 3 2 2
4 4 4 3 2 2 1 1 1 2 1 1 1 1 1 2 3 3 3 4 4 5 5 4 4 3 3 4 4 5 5 4 4 4 4 4 4 4 4 4 5 5 4 3 3 2 2 2 2 1 1 1
2 2 2 2 2 1 -0 -0 0 0 -0 -0 -1 -1 -0 0 1 1 2 2 3 3 3 3 3 2 2 3 3 4 3 3 3 3 3 3 3 3 4 4 4 4 3 3 2 1 1 0 0 0 1 0
2 1 1 1 0 0 -1 -1 -0 -0 -1 -1 -1 -0 -0 -1 -1 -0 0 0 1 1 2 2 2 2 1 2 2 2 2 2 2 2 2 3 3 2 3 3 3 3 3 3 2 1 0 -1 -1 -1 -1 -1
1 0 0 -0 -2 -2 -2 -3 -2 -2 -2 -2 -1 -1 -1 -1 -1 -1 -1 -1 -1 -0 0 1 1 0 0 0 0 0 0 1 1 1 1 2 2 2 2 1 1 2 3 3 2 2 2 0 -0 0 -1 -3
1 0 -0 -0 -2 -2 -2 -4 -4 -4 -4 -3 -2 -2 -2 -2 -1 -1 -1 -1 -1 -1 -1 -1 -1 -1 -1 -1 -1 -1 -0 -0 -0 0 0 1 1 1 1 -0 -1 -1 1 1 1 1 1 -1 0 2 -1 -4
0 0 0 -0 -1 -1 -2 -3 -3 -4 -5 -4 -4 -3 -3 -3 -2 -2 -2 -2 -2 -3 -2 -2 -2 -2 -1 -2 -2 -1 -1 -2 -2 -1 -1 -0 -0 -0 -1 -2 -3 -3 -2 -1 -0 -0 -1 -1 2 1 -2 -4
-1 -1 -1 -1 -2 -3 -4 -5 -5 -5 -6 -5 -5 -5 -5 -4 -3 -2 -2 -2 -3 -3 -4 -3 -2 -2 -2 -2 -2 -2 -2 -3 -3 -2 -2 -2 -1 -2 -3 -2 -2 -4 -4 -3 -3 -3 -3 -2 -1 -3 -4 -2
-2 -2 -2 -2 -3 -4 -5 -6 -8 -8 -7 -7 -7 -7 -6 -5 -4 -4 -3 -3 -3 -4 -4 -4 -3 -3 -3 -3 -4 -4 -3 -4 -4 -4 -4 -3 -3 -3 -3 -2 -2 -5 -5 -4 -5 -6 -5 -6 -6 -5 -5 -4
Height
831 832 833 835 837 839 840 841 843 844 845 846 848 850 852 854 855 856 857 857 858 860 861 862 862 862 862 862 862 862 862 862 862 863 864 866 867 866 866 867 867 867 867 868 868 869 869 870 870 870 870 871
830 831 833 835 837 839 840 841 842 844 845 846 848 850 852 853 854 855 856 857 858 860 861 862 863 863 863 863 863 862 862 862 862 863 864 866 867 867 867 868 868 868 868 868 869 869 870 871 871 871 871 872
830 831 833 835 837 839 840 841 842 844 845 847 848 850 851 853 854 855 856 857 858 860 861 862 862 863 863 863 863 863 863 863 863 863 864 865 867 867 868 868 869 869 869 869 870 870 871 871 872 872 873 873
829 831 832 835 837 838 840 841 842 844 845 847 849 850 851 852 853 855 856 857 859 860 861 862 862 863 863 863 863 863 863 863 863 864 864 866 867 868 868 869 869 869 870 870 870 871 872 872 873 873 873 874
828 831 833 835 837 838 840 841 842 844 845 847 849 850 851 852 853 855 856 858 859 860 861 862 862 862 863 863 863 864 864 864 864 864 865 866 867 868 869 869 870 870 870 871 871 872 872 873 873 873 874 874
828 830 833 835 836 838 839 841 842 844 846 847 849 850 851 852 853 855 856 858 859 860 861 862 862 863 863 863 863 864 864 865 865 864 865 866 867 868 869 870 870 870 871 871 872 872 872 872 873 873 874 875
828 830 832 834 836 837 839 841 843 844 846 847 849 850 851 853 854 855 857 858 859 860 861 862 862 863 863 863 864 864 865 865 865 865 865 866 867 869 870 871 871 871 871 872 872 872 872 872 873 874 874 875
827 829 831 833 835 837 838 840 843 844 846 847 849 850 851 852 854 855 857 858 860 861 862 862 863 863 863 864 864 865 865 865 865 865 865 866 868 869 870 871 871 872 872 872 872 872 872 873 873 874 874 875
825 828 830 831 834 836 838 840 842 844 846 848 849 850 851 852 854 855 857 859 860 861 862 862 863 863 863 864 864 865 865 865 865 865 865 866 867 869 870 871 872 872 872 872 872 872 873 873 874 874 875 875
824 827 829 830 832 835 837 839 841 843 845 847 849 850 851 853 854 856 857 859 860 861 862 862 863 863 864 864 865 865 866 866 866 866 866 867 868 869 870 871 872 872 872 872 872 872 873 874 874 875 875 875
823 826 828 829 831 833 836 838 840 842 844 846 848 850 851 852 854 856 857 859 860 861 862 862 863 864 864 864 865 866 866 866 866 866 867 867 868 869 870 871 872 872 873 873 873 873 873 874 874 875 875 876
823 826 828 829 829 832 835 837 839 841 843 845 847 849 850 852 853 855 856 858 859 860 862 862 863 864 864 865 865 866 866 866 866 867 867 868 869 870 871 872 873 873 873 873 874 874 874 875 875 875 876 876
821 824 828 829 829 831 834 835 838 840 842 844 845 848 850 851 852 854 855 857 858 860 861 862 863 864 864 865 865 866 866 866 867 867 868 869 869 870 872 872 873 874 874 874 875 875 875 875 876 876 876 877
820 822 826 828 828 830 833 835 837 839 841 843 845 847 849 850 851 852 854 856 857 859 861 862 863 864 865 865 865 866 866 867 867 868 868 869 870 871 872 873 874 875 875 875 875 875 876 876 877 877 877 877
820 822 824 827 828 830 832 835 837 839 841 843 845 846 848 850 851 852 853 855 857 858 860 861 863 864 864 865 865 866 866 867 867 868 869 870 871 872 873 874 875 875 875 876 876 876 877 877 877 878 878 878
820 822 824 826 828 830 832 834 836 838 840 843 844 846 848 849 851 852 853 855 856 858 859 860 862 863 864 865 865 866 867 867 868 869 869 870 871 872 873 874 875 876 876 876 877 877 877 878 878 878 878 878
820 822 824 826 828 830 831 833 836 837 839 842 844 846 848 849 850 851 852 854 855 857 858 860 861 862 863 864 865 866 867 868 868 869 870 871 872 873 873 874 875 876 877 877 877 878 878 878 878 878 879 878
820 822 823 825 827 829 831 833 835 837 839 841 843 845 847 848 849 850 851 853 854 856 857 859 860 861 862 864 865 866 867 868 868 869 870 871 872 873 874 875 875 876 877 877 878 878 879 879 879 879 879 879
821 822 823 824 825 828 831 833 835 836 838 840 842 845 847 848 848 849 850 852 853 855 857 858 860 861 862 863 864 865 866 867 868 869 869 871 872 873 874 875 876 877 877 878 878 878 879 879 879 879 878 878
823 823 822 823 825 827 830 833 835 837 838 839 841 844 847 848 848 849 849 852 853 854 856 858 860 861 862 863 864 865 865 866 867 868 869 870 871 872 874 875 876 877 877 878 878 879 878 879 879 878 878 878
823 825 824 824 824 826 829 832 834 836 838 839 841 844 846 848 849 848 849 851 852 853 856 858 860 861 862 863 864 864 865 865 867 868 869 870 871 872 873 874 875 876 877 878 879 879 879 879 879 878 878 879
821 824 825 825 826 826 828 831 833 836 838 839 841 844 846 848 848 848 849 850 851 852 855 857 859 860 861 862 863 864 864 865 866 868 869 870 871 872 873 873 874 875 876 878 879 879 879 880 879 879 879 879
822 824 826 827 829 828 829 831 834 836 838 840 841 843 846 847 848 849 849 850 850 851 854 856 858 860 861 861 862 863 864 865 866 868 869 870 871 872 873 873 874 874 876 878 879 880 880 881 880 880 880 880
822 823 825 828 830 831 832 832 834 837 839 841 841 843 846 847 847 849 850 851 851 851 853 855 858 860 861 861 862 863 864 865 866 867 869 870 872 873 873 874 874 874 875 878 880 881 882 882 882 882 882 881
823 824 824 825 829 832 834 835 835 837 840 842 843 844 846 846 847 848 850 852 852 852 853 855 857 859 860 861 861 863 863 864 866 867 868 870 872 873 874 874 874 874 876 878 880 882 883 883 883 883 883 882
823 825 824 824 827 831 834 837 837 838 841 843 844 846 847 848 849 849 850 852 854 854 854 854 856 858 860 861 861 862 863 864 865 866 868 870 872 874 874 874 875 875 877 878 879 881 883 884 885 885 884 884
821 825 826 826 828 830 832 837 839 839 841 843 844 846 847 849 851 852 852 854 856 857 856 855 856 857 860 861 861 862 863 864 865 867 868 870 871 873 874 874 876 876 877 877 878 880 881 883 884 885 885 885
822 824 827 829 831 833 833 836 840 842 843 844 845 846 848 849 851 853 854 855 859 861 859 857 857 858 859 861 863 863 864 865 866 867 868 869 871 872 873 874 876 877 877 877 878 879 880 882 882 883 885 886
824 824 826 828 832 835 836 839 841 844 846 847 846 847 849 850 851 854 855 856 859 863 863 859 858 859 860 863 864 865 865 866 867 867 868 869 870 871 872 874 876 878 878 878 878 879 880 880 881 883 885 886
826 825 826 826 829 832 835 839 842 845 847 849 849 850 851 852 853 854 856 857 860 866 866 862 859 860 862 864 866 867 867 868 869 869 869 870 871 871 873 875 876 878 879 879 879 880 881 881 882 884 885 885
829 828 829 828 829 831 833 836 841 845 847 849 850 852 853 854 855 856 857 858 861 867 869 865 860 860 862 865 867 868 869 869 870 870 871 872 872 872 874 875 875 877 879 880 881 882 883 884 884 885 885 885
Wind_Speed
25 25 26 25 25 25 23 21 20 20 18 18 18 19 19 19 17 15 13 12 13 13 11 12 11 9 8 7 6 5 6 8 9 11 13 12 11 12 14 15 15 16 16 16 15 14 14 13 13 12 11 12
26 26 26 25 26 26 24 22 21 21 19 19 20 20 20 19 17 16 15 14 14 13 12 12 11 9 8 7 6 6 7 8 10 12 13 13 12 13 14 15 15 15 15 15 14 14 13 13 12 12 12 13
27 27 27 26 27 26 25 23 22 21 19 20 21 22 21 19 18 16 16 15 15 14 12 11 11 10 9 8 8 8 9 10 11 12 13 13 13 13 14 14 15 15 15 14 14 13 13 13 13 12 13 14
28 29 29 27 27 26 25 23 22 20 20 22 23 22 21 19 17 16 16 16 15 14 12 11 11 10 9 9 9 10 11 11 12 13 14 13 12 12 12 13 14 14 14 13 13 12 13 12 12 12 12 13
29 29 28 27 27 26 25 23 22 21 22 23 23 22 20 19 18 17 17 16 15 14 13 11 10 10 9 9 9 10 11 11 12 13 14 13 13 12 12 13 13 13 13 12 11 11 11 10 10 11 11 11
29 29 28 27 26 26 24 23 22 22 22 23 22 21 20 19 18 18 17 17 15 14 12 10 9 9 9 9 9 9 10 11 11 12 14 14 14 13 13 12 12 12 12 11 10 9 8 8 9 10 9 9
30 30 28 27 26 25 23 22 22 22 22 22 22 21 20 19 19 18 17 16 14 13 11 10 8 8 9 9 9 9 9 10 11 12 13 14 13 13 12 12 12 11 11 11 9 8 7 8 9 8 8 8
32 30 29 28 26 25 24 24 23 23 23 22 22 21 20 20 18 17 17 15 13 12 11 9 8 8 9 10 10 10 10 10 11 12 13 13 13 13 12 12 12 11 10 10 9 8 8 8 8 8 8 9
32 31 29 28 26 25 25 25 25 24 23 22 22 21 20 18 17 17 17 15 13 12 10 10 9 10 10 10 11 10 10 11 11 12 13 13 13 12 11 11 11 10 10 10 9 9 9 9 8 8 9 9
33 31 30 29 27 26 26 26 26 25 23 22 21 20 19 18 18 17 17 16 14 13 11 10 10 10 10 10 11 10 10 12 11 12 12 12 13 12 11 11 11 10 10 10 10 10 10 9 9 9 8 8
32 31 30 30 28 27 29 28 27 27 25 24 23 21 20 19 19 19 17 16 15 13 11 11 11 10 10 10 11 10 9 10 11 11 11 12 12 12 11 11 11 10 10 10 10 10 10 10 9 9 8 8
33 32 31 31 31 29 31 30 29 30 28 27 26 24 23 21 21 19 18 17 14 13 12 11 11 10 10 9 10 9 8 9 10 10 10 10 11 11 10 11 11 11 10 10 10 9 10 9 9 9 8 8
35 34 33 33 33 33 33 33 32 32 31 30 28 27 25 23 22 20 19 17 15 13 12 11 11 10 9 9 9 8 8 9 9 9 9 9 9 9 9 9 10 9 10 10 10 9 9 9 9 9 8 8
37 36 35 33 34 34 34 34 34 33 32 31 30 29 27 24 23 21 20 18 17 15 13 13 12 11 10 9 8 7 7 8 8 8 8 8 7 7 7 7 8 8 8 9 9 9 9 9 9 8 8 8
36 36 36 34 33 34 34 34 33 33 32 32 31 29 27 25 23 22 21 19 18 16 15 14 13 11 10 9 8 6 6 7 6 6 6 6 6 6 6 7 8 7 7 8 9 9 9 9 8 8 8 8
35 35 35 34 33 33 34 33 33 33 32 31 30 29 27 26 24 23 22 20 20 18 16 15 13 12 10 9 9 7 6 6 5 5 5 6 6 6 6 6 7 7 7 8 8 8 8 8 7 7 7 6
33 34 34 33 33 33 33 33 33 33 32 31 29 28 27 27 26 24 23 22 21 20 18 17 15 14 12 10 9 8 6 5 5 5 6 6 6 6 6 5 6 6 6 7 7 7 7 6 6 7 6 6
31 32 33 33 33 33 32 33 33 33 32 31 29 29 28 28 27 26 25 24 23 21 20 19 17 16 15 13 10 8 7 6 6 6 6 6 6 5 5 4 5 5 5 6 6 6 6 6 6 6 6 7
29 31 33 33 33 33 32 32 32 32 31 30 29 29 28 28 28 27 26 24 23 22 20 19 19 18 17 15 12 10 8 7 6 6 6 6 5 4 4 4 4 4 5 5 5 6 6 6 6 6 6 7
26 27 31 33 33 33 32 31 30 30 30 30 29 28 27 26 27 26 25 24 22 21 20 19 19 18 18 16 14 12 10 8 7 6 5 5 4 3 3 3 3 4 4 5 6 6 6 7 6 6 7 8
28 26 28 31 32 33 32 31 30 29 28 29 29 28 26 25 25 25 25 24 22 21 20 20 19 18 18 16 15 13 12 10 8 7 5 5 4 3 2 2 2 3 4 5 6 6 7 8 8 8 10 10
31 30 29 30 30 32 32 30 29 28 28 28 28 27 25 24 24 24 24 23 22 21 20 20 19 19 18 16 15 14 13 11 10 8 6 5 5 3 2 2 3 4 5 6 7 8 10 10 11 12 13 13
31 30 30 29 28 29 30 29 28 27 27 26 26 26 24 24 24 23 23 23 22 22 21 20 19 18 17 16 15 13 13 12 11 9 7 6 6 5 4 4 5 5 6 7 8 11 13 14 14 15 15 15
31 32 31 29 28 27 28 28 28 26 25 25 25 25 23 24 24 23 22 22 22 22 21 20 19 17 16 16 14 13 13 13 11 10 9 8 8 7 7 7 7 7 9 11 13 15 16 16 16 16 15 16
30 31 32 32 30 28 27 26 27 26 24 23 23 23 23 23 23 23 22 21 21 21 21 20 19 18 17 16 14 14 14 14 12 11 10 9 9 8 8 10 10 9 12 14 14 15 16 17 17 15 15 15
30 29 31 32 32 30 28 26 26 27 25 23 22 21 21 21 21 21 21 21 20 21 21 21 20 18 17 16 15 15 15 15 13 13 11 10 10 10 11 14 13 9 10 10 10 11 10 11 11 12 13 14
30 28 29 31 32 32 31 29 27 28 27 26 25 23 22 21 20 20 20 20 19 19 20 20 20 20 19 18 17 17 17 16 15 14 13 11 11 12 13 15 15 12 9 7 8 8 5 3 4 4 8 12
29 29 28 29 29 29 29 29 28 28 27 26 25 25 24 23 22 21 20 20 19 19 20 20 21 21 20 20 19 19 19 19 18 17 15 14 12 12 14 16 17 16 13 10 6 4 2 1 2 2 3 8
30 32 32 31 30 28 29 28 27 27 26 25 25 25 24 23 23 22 22 21 20 20 20 21 22 22 21 21 20 20 20 20 20 19 17 16 14 14 15 16 17 17 16 15 11 7 5 2 1 2 2 4
30 32 34 35 34 33 32 29 24 25 25 24 25 25 25 24 23 22 22 22 21 20 21 22 23 23 22 22 21 21 21 21 20 19 18 16 15 16 15 13 15 17 16 16 16 14 11 7 4 1 2 1
28 29 30 32 33 32 32 29 25 25 27 26 26 26 25 25 24 23 23 23 22 21 21 22 23 23 22 22 22 21 21 21 20 20 19 17 16 16 14 11 13 16 13 12 15 15 13 12 10 8 5 2
Wind_Direction
169 171 171 168 167 167 164 162 164 163 162 161 157 152 145 139 137 132 128 127 123 124 123 114 111 120 123 114 100 80 71 68 77 92 97 97 96 95 106 115 112 115 118 119 117 113 110 107 103 98 95 91
173 173 170 166 168 168 167 164 163 162 161 159 155 152 149 143 138 133 132 130 127 129 125 117 111 108 103 95 86 78 76 78 88 99 104 101 101 106 114 116 114 116 117 118 118 114 112 108 104 100 95 92
175 172 168 166 168 169 168 165 164 164 160 157 153 152 151 147 141 138 136 131 130 130 125 116 108 101 93 87 82 79 83 89 99 108 114 113 112 116 119 118 117 116 115 115 114 113 112 108 106 101 97 96
174 170 169 168 169 168 168 166 165 164 159 157 155 153 153 151 147 144 139 132 129 126 121 115 109 104 96 89 85 85 91 96 105 111 115 118 118 119 120 121 120 116 114 113 111 110 109 108 105 100 99 98
172 169 169 168 167 166 168 167 164 162 158 158 157 157 156 153 148 143 136 132 129 126 124 120 115 111 104 96 91 94 101 105 107 109 111 112 113 114 117 121 120 118 116 114 111 109 107 105 100 97 98 96
171 171 171 168 166 165 167 166 163 161 160 161 161 159 156 151 145 140 137 135 134 133 130 126 122 116 109 104 100 106 112 113 112 109 108 108 110 112 115 119 120 119 118 115 111 108 106 100 94 93 93 91
171 172 171 167 166 164 166 168 166 165 164 164 163 160 155 148 143 140 138 139 140 138 134 130 127 118 110 109 109 113 115 114 114 112 112 111 113 115 116 117 116 115 115 112 111 109 106 97 93 91 88 87
171 171 170 167 166 165 166 169 170 168 167 166 164 159 153 148 144 142 142 143 145 142 140 136 131 121 113 114 114 114 114 110 109 113 115 116 117 117 117 116 113 113 112 110 110 108 102 98 95 92 87 84
172 171 169 166 165 166 166 169 170 169 169 166 163 159 155 152 149 149 148 150 151 148 146 141 134 125 119 121 117 114 112 106 105 110 113 117 118 116 117 117 113 113 110 107 107 104 100 98 95 89 85 81
172 171 170 166 165 166 166 169 170 170 171 168 165 163 161 160 158 157 155 155 155 151 149 143 136 129 125 124 118 115 113 108 105 106 109 113 112 111 113 112 110 111 109 106 104 102 98 95 92 86 82 76
172 171 171 168 169 170 170 171 171 171 172 171 171 170 170 170 166 162 158 157 155 151 150 143 137 134 130 126 118 114 113 110 108 106 107 108 106 106 105 103 103 105 106 104 103 101 97 92 88 83 79 73
174 173 172 169 169 172 171 172 173 172 171 172 174 174 175 174 169 164 159 158 157 153 151 146 141 140 134 128 119 114 109 104 105 107 105 103 102 101 99 98 96 98 100 98 97 95 91 86 82 79 75 72
175 174 173 170 169 170 171 172 172 171 170 170 172 173 174 174 169 166 163 161 160 158 155 151 148 146 141 132 123 117 107 98 99 103 102 99 96 92 91 94 91 90 93 91 88 84 83 79 75 72 69 68
173 173 173 170 170 170 171 171 170 169 170 169 169 171 173 174 172 168 166 163 160 159 155 152 153 150 146 137 129 124 111 102 101 100 100 97 90 85 85 91 89 86 87 87 84 80 79 76 72 70 67 64
169 171 171 169 169 170 170 170 169 169 168 167 168 171 172 174 173 170 167 163 160 159 156 154 155 152 149 143 135 132 118 111 107 102 100 94 87 84 85 93 91 85 84 83 82 79 77 76 73 71 66 59
167 168 169 169 167 167 168 168 168 167 167 167 168 170 171 172 171 169 165 162 162 160 158 158 157 154 153 150 142 139 128 118 110 102 99 95 92 92 92 95 92 85 82 80 78 75 72 70 65 61 56 47
164 165 166 166 165 164 164 166 167 165 166 166 167 168 169 169 168 167 165 163 162 160 159 158 158 156 156 153 148 142 134 123 113 107 102 102 101 101 102 98 93 85 76 75 73 68 65 59 52 48 42 38
160 163 163 162 162 162 161 163 165 164 165 165 165 167 167 167 167 166 165 164 163 162 160 159 159 159 156 153 149 143 138 131 122 119 114 112 111 109 109 97 93 86 70 68 64 58 52 47 45 38 35 41
155 157 159 158 157 158 158 158 159 160 162 163 164 165 165 165 166 165 164 164 164 162 161 161 161 159 154 151 152 148 144 140 131 130 124 121 124 116 110 97 87 76 59 49 42 40 36 39 41 42 51 55
155 149 150 152 152 153 155 156 155 154 157 160 161 163 163 163 165 164 164 164 165 164 162 163 161 156 151 150 155 152 148 147 141 141 138 134 141 137 124 107 79 61 47 33 32 30 32 43 48 58 69 72
160 152 146 147 149 150 150 150 148 147 151 155 156 159 159 159 160 161 162 163 165 164 162 161 159 154 151 152 155 153 151 149 145 148 153 147 147 157 148 122 85 55 42 36 40 45 54 64 70 78 84 86
156 153 146 140 142 145 145 143 141 142 145 148 152 154 154 155 154 155 158 160 162 162 159 159 157 152 149 152 154 153 148 142 140 142 145 142 133 139 149 119 91 66 55 59 66 75 80 85 90 92 95 97
156 153 148 139 135 137 138 137 137 139 140 140 144 147 148 150 148 147 151 154 157 158 157 156 152 147 144 147 150 150 144 135 133 131 126 123 113 108 103 89 89 84 78 85 91 96 97 96 98 99 100 99
152 152 148 144 138 133 130 133 136 137 136 133 134 136 138 143 143 141 142 145 150 152 153 150 145 141 138 140 143 142 136 128 125 124 118 113 102 95 92 90 96 102 105 107 105 104 103 100 99 98 98 95
145 144 144 143 140 133 126 128 131 129 129 127 126 127 128 131 135 138 137 137 142 145 145 142 138 135 131 132 134 131 125 122 121 119 115 111 103 98 93 84 86 109 124 120 112 108 104 97 93 90 89 87
148 145 144 142 138 136 131 129 130 128 127 127 128 129 127 124 125 129 129 127 130 135 136 134 132 128 124 122 122 120 117 118 121 119 116 114 104 95 88 76 72 99 129 130 130 129 116 100 90 83 75 74
152 150 147 141 135 133 129 124 124 124 124 127 127 126 126 123 120 120 120 118 118 122 126 126 124 119 115 113 112 112 112 113 115 115 113 111 103 94 88 78 68 75 93 113 138 141 131 126 123 103 60 61
153 148 144 139 132 129 125 119 118 117 117 122 123 120 121 122 121 119 118 118 115 113 116 117 115 112 110 107 106 107 106 104 104 105 105 103 102 96 90 83 70 65 67 77 105 130 132 107 109 150 45 55
153 149 145 140 134 130 125 120 120 116 110 112 116 116 116 117 119 119 116 115 112 108 109 111 109 107 105 102 100 100 99 97 95 96 98 97 97 93 88 87 80 71 65 68 74 83 103 101 94 181 310 52
149 148 146 142 137 132 126 119 116 116 112 110 111 110 112 113 116 118 116 114 111 107 105 107 107 104 101 98 96 95 94 93 91 89 90 90 91 89 87 91 87 78 70 67 68 72 80 86 90 99 315 34
146 145 144 143 139 134 129 121 115 117 117 115 114 112 113 113 114 117 117 116 114 110 106 104 104 102 100 96 94 93 91 89 86 85 85 85 87 89 88 89 86 82 80 73 68 68 74 77 74 67 60 81